Hourly Weather Roundup
Issued by NWS Central Illinois

Home | Current Version | Previous Version | Text Only | Print | Product List | Glossary On
Versions: 1 2 3 4 5 6 7 8 9 10 11 12 13 14 15 16 17 18 19 20 21 22 23 24 25 26 27 28 29 30 31 32 33 34 35 36 37 38 39 40 41 42 43 44 45 46 47 48 49 50
000
NZUS43 KILX 251710
HWRILX

AREA WEATHER ROUNDUP
NATIONAL WEATHER SERVICE, LINCOLN IL
1200 PM CDT THU AUG 25 2016


CITY           SKY/WX    TMP DP  RH WIND       PRES   REMARKS
BLOOMINGTON    CLOUDY    77  71  82 W8        30.10S
CHAMPAIGN      MOSUNNY   81  71  71 W6        30.09R HX  85
DANVILLE       PTSUNNY   82  72  71 SW9G17    30.06R HX  87
DECATUR        MOSUNNY   84  70  62 W10G17    30.09S HX  88
EFFINGHAM      MOSUNNY   85  74  69 SW3       30.11S HX  93
FLORA          PTSUNNY   87  77  72 SW5       30.09S HX  99
GALESBURG      CLOUDY    77  70  79 S3        30.09R
JACKSONVILLE   PTSUNNY   81  72  74 W8        30.10R HX  85
LACON          CLOUDY    78  70  76 SW6       30.06S HX  80
LAWRENCEVILLE  MOSUNNY   87  75  67 SW7       30.09R HX  96
LITCHFIELD     MOSUNNY   85  70  61 W5        30.10S HX  90
$$


CITY           SKY/WX    TMP DP  RH WIND       PRES   REMARKS
LINCOLN        CLOUDY    81  72  74 W5        30.08F HX  85
MACOMB         CLOUDY    75  72  89 SW6       30.12R
MATTOON        SUNNY     84  69  60 VRB5      30.09R HX  88
MT CARMEL AP   MOSUNNY   87  75  67 SW7       30.09S HX  95
OLNEY-NOBLE AP PTSUNNY   86  77  74 SW3       30.09S HX  97
PARIS          SUNNY     85  72  64 W3        30.10R HX  90
PEORIA         CLOUDY    77  72  84 SW5       30.08R
PONTIAC        CLOUDY    80  74  83 W7        30.08S HX  84
RANTOUL        MOSUNNY   81  73  76 W7        30.09S HX  86
ROBINSON       MOSUNNY   85  76  73 W7        30.10R HX  95
SPRINGFIELD    PTSUNNY   83  71  67 W7        30.09S HX  87
TAYLORVILLE    PTSUNNY   82  72  70 SW7       30.10S HX  87
$$

...REGIONAL REPORTS...


CITY           SKY/WX    TMP DP  RH WIND       PRES   REMARKS
CHICAGO O`HARE PTSUNNY   76  68  76 NW6       30.04R
KANKAKEE       CLOUDY    78  71  80 W10G16    30.07R HX  80
MOLINE         MOSUNNY   77  66  68 CALM      30.07S
MOUNT STERLING CLOUDY    78  71  80 SW5       30.09F HX  80
MOUNT VERNON   SUNNY     88  73  62 SW10      30.11S HX  96
PITTSFIELD     CLOUDY    80  72  76 SW8       30.11S HX  84
QUINCY         CLOUDY    77  72  84 W5        30.09F
ROCKFORD       CLOUDY    78  64  61 N3        30.07R HX  80
$$


CITY           SKY/WX    TMP DP  RH WIND       PRES   REMARKS
BURLINGTON     CLOUDY    76  70  82 W3        30.10R
CEDAR RAPIDS   PTSUNNY   75  63  66 NW5       30.10R
DES MOINES     CLOUDY    71  64  78 CALM      30.11F
KIRKSVILLE     CLOUDY    74  70  87 N5        30.10F
OTTUMWA        LGT RAIN  69  65  86 S5        30.13R
ST LOUIS       MOSUNNY   90  72  55 W9        30.10R HX  97
$$


CITY           SKY/WX    TMP DP  RH WIND       PRES   REMARKS
TERRE HAUTE    MOSUNNY   87  71  58 W12       30.08R HX  93
EVANSVILLE     SUNNY     89  74  60 SW10      30.10S HX  98
INDIANAPOLIS   MOSUNNY   88  71  57 W12       30.08R HX  94
LAFAYETTE      SUNNY     82  70  66 W12       30.06R HX  86
MADISON        PTSUNNY   78  59  51 N8        30.06R
MILWAUKEE      MOSUNNY   79  58  48 NW7       30.03R HX  80
$$





USA.gov is the U.S. government's official web portal to all federal, state and local government web resources and services.